Location: Poughquag
(41.6090°N, 73.6820°W)
Time: 09:31:18
(UTC-05:00)

SR - Pass Details

Date: 15 December 2023
Orbit: 574 x 868 km, 66.7° (Epoch: 25 February)

Event Time Altitude Azimuth Distance (km) Brightness Sun altitude
Rises 09:51:42 0° 241° (WSW) 3,311 ? 19.6°
Reaches altitude 10° 09:54:23 10° 252° (WSW) 2,422 ? 19.8°
Maximum altitude 09:59:17 30° 313° (NW) 1,489 ? 20.3°
Drops below altitude 10° 10:04:23 10° 13° (NNE) 2,517 ? 20.7°
Sets 10:07:14 0° 24° (NNE) 3,462 ? 20.9°
